This is the latest recevied weather packets stored in our database for station/object KF6RAL-6. If no packets are shown the sender has not sent any weather packets the latest 1 day(s).
| Time | Temp. | Humidity | Pressure | Rain* | Wind** | Luminosity | Snow |
|---|---|---|---|---|---|---|---|
| 1778085976 | 10.56° C | 41% | 1018.8 hPa | 0 mm | - | - | - |
| 1778079661 | 11.11° C | 39% | 1017.1 hPa | 0 mm | - | - | - |
| 1778078398 | 11.11° C | 39% | 1016.7 hPa | 0 mm | - | - | - |
| 1778077977 | 11.11° C | 48% | 1016.5 hPa | 0 mm | - | - | - |
| 1778077556 | 11.11° C | 52% | 1016.3 hPa | 0 mm | - | - | - |
| 1778077137 | 11.11° C | 50% | 1016.1 hPa | 0 mm | - | - | - |
| 1778076714 | 11.11° C | 48% | 1016.2 hPa | 0 mm | - | - | - |
| 1778076293 | 10.56° C | 47% | 1016.1 hPa | 0 mm | - | - | - |
| 1778075872 | 11.11° C | 48% | 1016.2 hPa | 0 mm | - | - | - |
| 1778075452 | 11.11° C | 49% | 1015.7 hPa | 0 mm | - | - | - |
| 1778075030 | 11.11° C | 48% | 1016.1 hPa | 0 mm | - | - | - |
| 1778074188 | 11.11° C | 46% | 1015.8 hPa | 0 mm | - | - | - |
| 1778073767 | 11.11° C | 47% | 1015.7 hPa | 0 mm | - | - | - |
| 1778073346 | 11.11° C | 45% | 1015.6 hPa | 0 mm | - | - | - |
| 1778072083 | 10.56° C | 46% | 1015.1 hPa | 0 mm | - | - | - |
| 1778071662 | 10° C | 42% | 1015 hPa | 0 mm | - | - | - |
| 1778071241 | 9.44° C | 47% | 1015.1 hPa | 0 mm | - | - | - |
| 1778070820 | 9.44° C | 51% | 1015 hPa | 0 mm | - | - | - |
| 1778070399 | 10° C | 51% | 1014.5 hPa | 0 mm | - | - | - |
| 1778069978 | 10° C | 54% | 1014.3 hPa | 0 mm | - | - | - |
| 1778069557 | 10° C | 48% | 1014.3 hPa | 0 mm | - | - | - |
| 1778069136 | 9.44° C | 57% | 1014.5 hPa | 0 mm | - | - | - |
| 1778068715 | 9.44° C | 55% | 1014.2 hPa | 0 mm | - | - | - |
| 1778068294 | 9.44° C | 60% | 1014.1 hPa | 0 mm | - | - | - |
| 1778067875 | 9.44° C | 59% | 1014.1 hPa | 0 mm | - | - | - |
* Rain latest hour (hover to see other rain measurements)
** Current wind speed in m/s (hover to see current wind gust speed)